Regional Weather Roundup
Issued by NWS

Home | Current Version | Previous Version | Graphics & Text | Print | Product List | Glossary On
Versions: 1 2 3 4 5 6 7 8 9 10 11 12 13 14 15 16 17 18 19 20 21 22 23 24 25 26 27 28 29 30 31 32 33 34 35 36 37 38 39 40 41 42 43 44 45 46 47 48 49 50
000
ASUS45 KSLC 282110
RWRUT

UTAH REGIONAL WEATHER ROUNDUP
NATIONAL WEATHER SERVICE SALT LAKE CITY UT
300 PM MDT TUE JUL 28 2015

UTZ001>011-023>025-282200-

NORTHERN UTAH

CITY           SKY/WX    TMP DP  RH WIND       PRES   REMARKS
BRIGHAM CITY   SUNNY     74  13  10 CALM      30.26F
HILL AFB       SUNNY     71  28  20 N7        30.28F
LOGAN          SUNNY     71  23  16 VRB5      30.27F
OGDEN          SUNNY     73  25  16 MISG      30.26F
PROVO AIRPORT  SUNNY     75  34  22 NW14      30.24F
SALT LAKE CITY SUNNY     75  24  15 N13       30.24F
VERNAL         SUNNY     79  28  15 VRB5      30.19F
WENDOVER       SUNNY     75  27  16 S8        30.25F
HEBER CITY     SUNNY     77  28  16 NW6       30.26F
WEST JORDAN    SUNNY     73  28  19 N13       30.26F

$$

UTZ012>022-026-027-282200-

SOUTHERN/CENTRAL UTAH

CITY           SKY/WX    TMP DP  RH WIND       PRES   REMARKS
BLANDING       SUNNY     87  31  13 W7G20     30.25S
BRYCE CANYON   SUNNY     79  31  17 NW13G22   30.31F
CEDAR CITY     SUNNY     83  27  13 VRB3      30.20F
DELTA          SUNNY     79  26  14 NW3       30.21F
HANKSVILLE     SUNNY     90  30  12 W7        30.11F
MILFORD        SUNNY     83  32  16 NE15G24   30.19F
MOAB/CYNLANDS  SUNNY     89  29  11 VRB7      30.09F
PRICE          MOSUNNY   83  28  13 SE7       30.20F
ST GEORGE      CLEAR     93  34  12 N5        30.00F
KANAB          SUNNY     90  23   9 S8G16     30.17F

$$

REGIONAL REPORTS     COLORADO/ARIZONA

CITY           SKY/WX    TMP DP  RH WIND       PRES   REMARKS
CRAIG, CO      SUNNY     81  31  16 NW9       30.26F
GRAND JUNCTION SUNNY     87  31  13 W8        30.11F
RIFLE          SUNNY     88  26  10 W18G28    30.15F
MONTROSE       SUNNY     87  34  15 N10       30.18F
CORTEZ         MOSUNNY   89  26  10 W17G23    30.18S
PAGE, AZ       SUNNY     93  25   8 NE6       30.07F
GRAND CANYON   SUNNY     84  24  11 S8G18     30.27F
KINGMAN        SUNNY     96  25   8 SW12G20   30.03F HX  90
FLAGSTAFF      MOSUNNY   79  37  22 SW9       30.28F

$$

REGIONAL REPORTS    NEVADA/IDAHO/WYOMING

CITY           SKY/WX    TMP DP  RH WIND       PRES   REMARKS
LAS VEGAS, NV  SUNNY    101  28   7 VRB3      29.89F HX  94
ELY            SUNNY     77  26  15 SE8       30.25F
ELKO           SUNNY     76  12   8 VRB5      30.24F
POCATELLO, ID  MOSUNNY   69  33  26 VRB7      30.31F
BURLEY         SUNNY     70  28  21 S3        30.28F
EVANSTON, WY   SUNNY     67  10  11 W9G24     30.35S
ROCK SPRINGS   SUNNY     68  17  14 W14G23    30.32S
KEMMERER       SUNNY     64  14  14 W14G23    30.36S

$$



USA.gov is the U.S. government's official web portal to all federal, state and local government web resources and services.